Joplin, MO

1:17 AM CST on November 19, 2019 (GMT -0600)
Joplin Regional

Weather History for KJLN - October, 2019

Change the Weather History Date:

Monday, October 21, 2019

  Actual Average Record
Temperature  
Mean Temperature 55 °F 58 °F  
Max Temperature 64 °F 70 °F 89 °F (1978)
Min Temperature 46 °F 47 °F 27 °F (1987)
Degree Days  
Heating Degree Days 10 8  
Month to date heating degree days 147 119  
Since 1 July heating degree days 147 161  
Cooling Degree Days 0 1  
Month to date cooling degree days 38 39  
Year to date cooling degree days 1696 1681  
Growing Degree Days 5 (Base 50)    
Moisture  
Dew Point 46 °F    
Average Humidity 72    
Maximum Humidity 100    
Minimum Humidity 33    
Precipitation  
Precipitation 0.35 in 0.14 in 1.48 in (1972)
Month to date precipitation 2.34 2.75  
Year to date precipitation 55.68 38.67  
Sea Level Pressure  
Sea Level Pressure 29.68 in    
Wind  
Wind Speed 8 mph ()    
Max Wind Speed 29 mph    
Max Gust Speed 39 mph    
Visibility 8.9 miles    
Events Rain , Thunderstorm    
T = Trace of Precipitation, MM = Missing Value Source: Averaged Metar Reports

Daily Weather History Graph

Daily Weather History Graph

Search for Another Location

Airport or City:

Astronomy

Oct. 21, 2019 Rise Set
Actual Time 7:31 AM CDT 6:33 PM CDT
Civil Twilight 7:04 AM CDT 6:59 PM CDT
Nautical Twilight 6:34 AM CDT 7:30 PM CDT
Astronomical Twilight 6:04 AM CDT 8:00 PM CDT
Moon No Moon Rise 2:45 PM CDT (10/21)
Length of Visible Light 11h 54m
Length of Day
11h 02m
Waning Gibbous, 48% of the Moon is Illuminated
Oct 21
Waning Gibbous
Oct 27
New
Nov 4
First Quarter
Nov 12
Full
Nov 19
Last Quarter

Hourly Weather History & Observations

Time (CDT) Temp. Windchill Dew Point Humidity Pressure Visibility Wind Dir Wind Speed Gust Speed Precip Events Conditions
12:12 AM 61.0 °F - 59.0 °F 93% 29.60 in 3.0 mi West 8.1 mph - 0.13 in Rain , Thunderstorm Thunderstorms and Rain
12:27 AM 60.1 °F - 59.0 °F 96% 29.59 in 2.0 mi Calm Calm - 0.20 in Rain , Thunderstorm Heavy Rain
12:33 AM 60.1 °F - 59.0 °F 96% 29.57 in 3.0 mi Calm Calm - 0.23 in Rain Heavy Rain
12:44 AM 60.1 °F - 57.9 °F 93% 29.55 in 5.0 mi East 6.9 mph - 0.26 in Rain , Thunderstorm Thunderstorms and Rain
12:53 AM 60.1 °F - 59.0 °F 96% 29.51 in 4.0 mi East 6.9 mph - 0.30 in Rain , Thunderstorm Heavy Rain
1:37 AM 59.0 °F - 57.9 °F 96% 29.53 in 10.0 mi South 5.8 mph - 0.04 in   Partly Cloudy
1:53 AM 59.0 °F - 59.0 °F 100% 29.51 in 10.0 mi SW 6.9 mph - 0.04 in   Scattered Clouds
2:13 AM 59.0 °F - 57.9 °F 96% 29.55 in 10.0 mi SW 8.1 mph - N/A   Mostly Cloudy
2:34 AM 60.1 °F - 59.0 °F 96% 29.58 in 10.0 mi SW 8.1 mph - N/A   Overcast
2:45 AM 57.9 °F - 57.0 °F 97% 29.59 in 10.0 mi NW 11.5 mph - 0.00 in Rain Light Rain
2:53 AM 57.0 °F - 55.9 °F 96% 29.57 in 10.0 mi NNW 3.5 mph - 0.00 in Rain Light Rain
3:19 AM 55.9 °F - 55.0 °F 97% 29.60 in 10.0 mi West 3.5 mph - 0.01 in   Overcast
3:53 AM 55.0 °F - 54.0 °F 96% 29.59 in 10.0 mi WSW 5.8 mph - 0.01 in   Clear
4:53 AM 51.1 °F - 50.0 °F 96% 29.61 in 10.0 mi WSW 9.2 mph - N/A   Clear
6:53 AM 46.9 °F - 42.1 °F 83% 29.65 in 10.0 mi West 11.5 mph - N/A   Clear
7:53 AM 46.0 °F 41.4 °F 39.9 °F 79% 29.68 in 10.0 mi WSW 9.2 mph - N/A   Clear
8:53 AM 50.0 °F - 39.9 °F 68% 29.71 in 10.0 mi WSW 13.8 mph - N/A   Clear
9:53 AM 52.0 °F - 39.9 °F 63% 29.73 in 10.0 mi WSW 17.3 mph - N/A   Clear
10:53 AM 54.0 °F - 39.0 °F 57% 29.73 in 10.0 mi West 16.1 mph 25.3 mph N/A   Clear
11:53 AM 57.0 °F - 39.9 °F 53% 29.74 in 10.0 mi West 15.0 mph 28.8 mph N/A   Clear
12:53 PM 60.1 °F - 41.0 °F 49% 29.73 in 10.0 mi SW 16.1 mph 27.6 mph N/A   Clear
1:53 PM 61.0 °F - 39.0 °F 44% 29.73 in 10.0 mi West 23.0 mph 29.9 mph N/A   Clear
2:53 PM 63.0 °F - 37.9 °F 40% 29.73 in 10.0 mi West 21.9 mph 35.7 mph N/A   Clear
3:53 PM 64.0 °F - 36.0 °F 35% 29.74 in 10.0 mi West 23.0 mph 36.8 mph N/A   Clear
4:53 PM 63.0 °F - 33.1 °F 33% 29.75 in 10.0 mi West 21.9 mph 33.4 mph N/A   Clear
5:53 PM 62.1 °F - 33.1 °F 34% 29.77 in 10.0 mi West 16.1 mph 23.0 mph N/A   Clear
6:53 PM 57.9 °F - 32.0 °F 37% 29.79 in 10.0 mi West 11.5 mph - N/A   Clear
7:53 PM 54.0 °F - 34.0 °F 47% 29.83 in 10.0 mi West 10.4 mph - N/A   Clear
8:53 PM 55.0 °F - 36.0 °F 49% 29.88 in 10.0 mi West 13.8 mph - N/A   Clear
10:53 PM 53.1 °F - 36.0 °F 52% 29.94 in 10.0 mi West 12.7 mph - N/A   Clear
11:53 PM 51.1 °F - 36.0 °F 56% 29.96 in 10.0 mi West 13.8 mph - N/A   Clear